Regional Weather Roundup
Issued by NWS

Home | Current Version | Previous Version | Graphics & Text | Print | Product List | Glossary On
Versions: 1 2 3 4 5 6 7 8 9 10 11 12 13 14 15 16 17 18 19 20 21 22 23 24 25 26 27 28 29 30 31 32 33 34 35 36 37 38 39 40 41 42 43 44 45 46 47 48 49 50
000
ASUS43 KLSX 261857
RWRMO

WEATHER SUMMARY FOR MISSOURI
NATIONAL WEATHER SERVICE SPRINGFIELD MO
200 PM CDT SUN MAR 26 2017

NOTE: "FAIR" INDICATES FEW OR NO CLOUDS BELOW 12,000 FEET WITH NO
       SIGNIFICANT WEATHER AND/OR OBSTRUCTIONS TO VISIBILITY.
       CURRENT SKY AND/OR WEATHER CONDITIONS ARE NOT AVAILABLE FOR
       CHILLICOTHE AND FARMINGTON.

MOZ001>031-035>038-043-044-053-054-262000-
...NORTHERN AND WESTERN MISSOURI...

CITY           SKY/WX    TMP DP  RH WIND       PRES   REMARKS
KANSAS CTY INT CLOUDY    50  44  80 W7        29.93S
LEE`S SUMMIT   CLOUDY    53  44  71 SW10      29.92F
ST JOSEPH      CLOUDY    49  43  80 W7G20     29.93S
CHILLICOTHE      N/A     50  43  77 W9        29.93S

$$
MOZ066>068-077>081-088>096-101>105-262000-
...SOUTHWEST MISSOURI...

CITY           SKY/WX    TMP DP  RH WIND       PRES   REMARKS
SPRINGFIELD    MOSUNNY   62  50  64 SW9       29.91F
JOPLIN         MOSUNNY   65  49  56 SW8       29.91F
BRANSON        PTSUNNY   64  48  55 SW8       29.94F

$$
MOZ032>034-039>042-045>050-055>058-069>072-262000-
...CENTRAL MISSOURI...

CITY           SKY/WX    TMP DP  RH WIND       PRES   REMARKS
COLUMBIA       NOT AVBL
JEFFERSON CITY CLOUDY    57  49  74 W8        29.92S
ROLLA          CLOUDY    59  50  72 SW13      29.90S
SEDALIA        CLOUDY    55  48  77 SW8       29.93F
WARRENSBURG    CLOUDY    52  45  76 SW9       29.93S

$$
MOZ051-052-059>065-262000-
...EAST CENTRAL MISSOURI...

CITY           SKY/WX    TMP DP  RH WIND       PRES   REMARKS
ST LOUIS INTL  CLOUDY    60  49  66 SW12      29.90S

$$
MOZ072>076-082>087-097>100-106>115-262000-
...SOUTH CENTRAL AND SOUTHEAST MISSOURI...

CITY           SKY/WX    TMP DP  RH WIND       PRES   REMARKS
CAPE GIRARDEAU CLOUDY    60  47  61 SW10      29.94F
POPLAR BLUFF   CLOUDY    61  48  62 S10G20    29.95F
WEST PLAINS    MOSUNNY   60  48  64 SE7       29.94F

$$



USA.gov is the U.S. government's official web portal to all federal, state and local government web resources and services.